• MPC Preparation (Info)

  • MPEC 2021-J101 : 2015 VV

    The following Minor Planet Electronic Circular may be linked-to from your own Web pages, but must not otherwise be redistributed electronically.

    A form allowing access to any MPEC is at the bottom of this page.


    Read MPEC 2021-J100 Read MPEC 2021-J102


    M.P.E.C. 2021-J101                                  Issued 2021 May 8, 14:00 UT
    
         The Minor Planet Electronic Circulars contain information on unusual
             minor planets and routine data on comets.  They are published
        on behalf of Division F of the International Astronomical Union by the
              Minor Planet Center, Smithsonian Astrophysical Observatory,
                              Cambridge, MA 02138, U.S.A.
    
                 Prepared using the Tamkin Foundation Computer Network
    
                                  MPC@CFA.HARVARD.EDU
                URL https://www.minorplanetcenter.net/    ISSN 1523-6714
    
                                     2015 VV                                 
    
    
                               Revision to MPEC 2015-V38                            
    
    Additional Observations:
         K15V00V  C2021 04 22.56099416 10 22.544-19 02 27.91         24.11GVEJ101F51
         K15V00V  C2021 04 22.57268216 10 21.861-19 02 16.64         23.43GVEJ101F51
         K15V00V  C2021 04 22.59594016 10 20.494-19 01 53.60         22.76GVEJ101F51
         K15V00V KC2021 05 07.31898 15 50 57.49 -14 15 52.2          22.6 RoEJ101291
         K15V00V KC2021 05 07.32573 15 50 56.71 -14 15 43.1                oEJ101291
    
    Observer details:
    291 LPL/Spacewatch II.  Observer M. T. Read.  1.8-m f/2.7 reflector + CCD.
    F51 Pan-STARRS 1, Haleakala.  Observers J. Bulger, K. Chambers, T. Lowe, A.
        Schultz, I. Smith.  Measurers S. Chastel, M. Huber, Y. Ramanjooloo, R.
        Wainscoat, R. Weryk.  1.8-m Ritchey-Chretien + CCD.
    
    First and last observations above in comparison with prediction:
    Residuals in seconds of arc (or two decimals in degrees), reference and Delta-T
    210422 F51 0.03- 0.00-    210507 291 0.03- 0.01-    MPO386940   -0.01 days
    
    Orbital elements:
    2015 VV                                                  Earth MOID = 0.0226 AU
    Epoch 2020 Dec. 17.0 TT = JDT 2459200.5                 Veres
    M  88.30899              (2000.0)            P               Q
    n   0.81332894     Peri.  177.23304     +0.86590995     -0.49876759
    a   1.1366460      Node   212.77287     +0.45757217     +0.82039599
    e   0.1045725      Incl.    4.00708     +0.20205858     +0.27960921
    P   1.21           H   24.4           G   0.15           U   0
    Residuals in seconds of arc
    151013 F51  0.2-  0.1+    151103 246  0.7+  0.3-    151120 807  0.1+  0.2+
    151013 F51  0.2-  0.2+    151103 246 (1.6+  1.1-)   151120 807  0.1+  0.5-
    151013 F51  0.1-  0.1+    151103 113  0.8+  0.4+    151129 807  0.1-  0.1-
    151101 703  0.1+  0.1+    151103 113  0.6+  0.0     151129 807  0.1-  0.1-
    151101 703 (1.5-  1.7-)   151104 300  0.4+  0.1-    151129 807  0.3-  0.2-
    151101 703  0.2+  0.1+    151104 300  0.2+  1.1+    151129 807  0.2-  0.2-
    151101 703 (0.2-  2.2+)   151104 300  0.6+  0.0     151129 807  0.0   0.3-
    151101 703  0.5-  1.1-    151104 300  0.3-  1.0+    151129 291  0.3-  0.1+
    151101 703  0.6-  0.3+    151104 300  0.5-  0.2+    151129 291  0.2-  0.1-
    151101 703 (1.5+  1.2-)   151106 807  0.1+  0.2-    151129 291  0.2-  0.1-
    151101 291  0.1+  0.1+    151106 807  0.0   0.2-    151130 291  0.3-  0.2-
    151101 291  0.1-  0.4+    151106 807  0.1+  0.2-    151130 291  0.2-  0.2-
    151101 291  0.3-  0.3+    151106 807  0.0   0.1-    151130 291  0.3-  0.0
    151101 703 (3.4-  2.8-)   151106 807  0.0   0.2-    151201 291  0.2-  0.5-
    151101 703 (1.7-  2.5-)   151107 G45  0.1+  0.4+    151201 291  0.1-  0.5-
    151101 703 (1.3-  2.9+)   151107 G45  0.3-  0.0     151201 291  0.3-  0.3-
    151101 246  0.9+  1.1-    151107 G45  0.2+  0.4+    151202 G45  0.6-  0.6+
    151101 246 (2.1-  1.5-)   151107 G45  0.0   0.3+    151202 G45  0.1+  0.0
    151101 K51  0.2+  0.1-    151107 G45  0.4-  0.1-    151202 G45  0.7-  0.1+
    151101 K51  0.1+  0.3-    151107 W85  0.2+  0.2-    151202 G45  0.7-  0.2+
    151101 K51  0.1+  0.1-    151107 W85  0.2+  0.3-    151202 G45  0.8-  0.3+
    151101 K51  0.1+  0.1+    151107 W85  0.2+  0.2-    151202 G45  1.2-  0.0
    151101 K51  0.0   0.2+    151107 W85  0.1+  0.4-    151202 291  0.2-  0.0
    151102 807  0.7+  0.4-    151108 807  0.2+  0.1-    151202 291  0.1-  0.3-
    151102 807  0.6+  0.2-    151108 807  0.2+  0.2-    151202 291  0.3-  0.1-
    151102 807  0.4+  0.1-    151108 807  0.1+  0.2-    151206 691  0.9-  0.2-
    151102 807  0.4+  0.2-    151108 807  0.1+  0.1-    151206 691  0.6-  0.1-
    151102 807  0.2+  0.1-    151108 807  0.2+  0.2-    151206 691  0.5+  0.9+
    151102 926  0.5+  0.5-    151108 926  0.1-  0.0     151217 807  0.2+  0.3-
    151102 926  0.0   0.3-    151108 926  0.1-  0.1+    151217 807  0.2+  0.5-
    151102 926  0.6+  0.1-    151108 926  0.1-  0.1+    151217 807  0.1+  0.1-
    151102 703  1.4-  0.6+    151112 474  0.3+  0.2-    151217 807  0.2+  0.1-
    151102 G96  0.1-  0.0     151112 474  0.5+  0.2+    151217 807  0.1+  0.2-
    151102 G96  0.4-  0.0     151112 474  0.1-  0.0     151218 291  0.6-  0.0
    151102 G96  0.1+  0.0     151112 474  0.5+  0.0     151218 291  0.5-  0.1-
    151102 703 (2.8-  0.8+)   151113 807  0.1-  0.1+    151218 291  0.3-  0.1+
    151102 G96  0.1-  0.1-    151113 807  0.1+  0.0     151218 807  0.0   0.1-
    151102 703  1.2-  0.7+    151113 807  0.1-  0.1-    151218 807  0.2-  0.5+
    151102 926  0.0   0.1+    151113 807  0.0   0.2-    151218 807  0.4-  0.5+
    151102 926  0.1+  0.2-    151113 807  0.0   0.3-    151218 807  0.0   0.1-
    151102 K51  0.3-  0.1-    151113 926  0.0   0.3-    151218 807  0.1+  0.1-
    151102 K51  0.0   0.2+    151113 926  0.0   0.2-    151229 695  0.3-  0.3+
    151102 K51  0.2+  0.2+    151113 926  0.3-  0.7+    151229 695  0.3-  0.1+
    151102 104  0.6+  0.6-    151113 291  0.3-  0.0     151229 695  0.3-  0.1+
    151102 104  0.1-  0.2+    151113 291  0.0   0.0     151231 F51  0.3-  0.1+
    151102 204  0.1+  0.4+    151113 291  0.3-  0.2+    151231 F51  0.1-  0.2+
    151102 204  0.2-  0.3-    151114 G45  0.0   0.1-    151231 F51  0.2-  0.3+
    151102 204  0.1+  0.1-    151114 G45  0.3+  0.0     160103 807  0.4-  0.1-
    151103 H36  0.7+  0.5-    151114 G45  0.2+  0.0     160103 807  0.2-  0.3+
    151103 H36  0.6-  0.5-    151114 G45  0.0   0.2+    160103 807  0.1-  0.2+
    151103 H36  0.4+  0.7-    151114 G45  0.4-  0.2+    160106 568  0.1+  0.1-
    151103 926  0.1+  0.2-    151114 G45  0.1-  0.0     160106 568  0.1+  0.1-
    151103 926  0.2+  0.3+    151114 G45  0.1+  0.3+    160107 568  0.0   0.1-
    151103 926  0.5-  0.1+    151114 G45  0.1+  0.9+    160107 568  0.0   0.0
    151103 691  0.5+  0.3-    151114 G45  0.1+  0.6+    160109 F51  0.1-  0.0
    151103 691  0.2-  0.2-    151116 807  0.1+  0.2-    160109 F51  0.2+  0.1-
    151103 691  0.3-  0.1-    151116 807  0.1+  0.1-    160112 568  0.1+  0.2+
    151103 926  0.2+  0.1-    151116 807  0.0   0.1-    160112 568  0.1+  0.2+
    151103 926  0.3-  0.4+    151116 807  0.0   0.1-    160202 568  0.0   0.0
    151103 926  0.2-  0.2+    151116 807  0.0   0.3-    210422 F51  0.1+  0.2+
    151103 113  0.7+  0.4+    151118 807  0.0   0.1+    210422 F51  0.2+  0.1+
    151103 246  0.2+  1.1+    151118 807  0.0   0.1+    210422 F51  0.0   0.3+
    151103 246  0.9-  0.1+    151118 807  0.4-  0.3+    210507 291  0.7-  0.1+
    151103 246  0.3+  0.0     151120 807  0.4-  0.2-    210507 291  0.2-  0.1+
    151103 246  0.7-  0.4+    151120 807  0.2-  0.2-
    151103 246  0.1+  0.2+    151120 807  0.1-  0.0
    
    Ephemeris:
    2015 VV                  a,e,i = 1.14, 0.10, 4                   q = 1.0178
    Date    TT    R. A. (2000) Decl.     Delta      r    Elong.  Phase     V
    2021 04 08    16 13 23.5 -22 02 28   0.3384  1.2555   132.7    35.9    24.0
    ...
    2021 04 23    16 10 02.3 -18 55 06   0.2806  1.2535   148.6    24.7    23.3
    ...
    2021 05 01    16 01 09.0 -16 29 58   0.2573  1.2506   158.6    17.1    22.8
    ...
    2021 05 07    15 51 31.6 -14 22 35   0.2442  1.2477   166.3    11.0    22.5
    2021 05 08    15 49 43.0 -14 00 09   0.2425  1.2471   167.5    10.1    22.5
    2021 05 09    15 47 51.6 -13 37 27   0.2408  1.2465   168.7     9.1    22.4
    ...
    2021 05 15    15 35 57.6 -11 18 04   0.2336  1.2427   172.2     6.3    22.2
    ...
    2021 05 23    15 19 33.8 -08 16 32   0.2309  1.2365   164.5    12.6    22.4
    ...
    2021 06 07    14 54 52.4 -03 56 30   0.2445  1.2220   144.4    28.9    23.0
    
    A. U. Tomatic                (C) Copyright 2021 MPC           M.P.E.C. 2021-J101
    


    Read MPEC 2021-J100 Read MPEC 2021-J102


    MPEC number:

    Enter an MPEC number in one of the following forms:

    • 1997-B01 (the full form)
    • J97B01 (the packed version of the full form)
    • B01 (the abbreviated form)